Location: Forbach
(48.6797°N, 8.3557°E)
Time: 22:26:15
(UTC+00:00)

Daily predictions for brighter satellites

Satellite Brightness Start Highest point End
(mag) Time Altitude Azimuth Time Altitude Azimuth Time Altitude Azimuth
Cosmos 1437 Rocket 4.2 17:28:06 10° SE 17:30:26 16° E 17:32:47 10° NE
ASTEX 1 3.5 17:26:29 10° NNE 17:31:24 56° E 17:36:18 10° S
HJ-1C 4.3 17:30:02 10° SE 17:32:37 24° ENE 17:35:13 10° NNE
Cosmos 1741 Rocket 4.1 17:27:49 10° S 17:33:01 62° ESE 17:38:13 10° NNE
CZ-4C R/B 3.9 17:30:29 10° N 17:34:44 69° WNW 17:38:47 10° SSW
Cosmos 1626 3.6 17:32:52 10° NNW 17:36:19 41° W 17:39:45 10° SSW
USA 267 3.4 17:29:47 10° ESE 17:36:21 87° SSW 17:42:58 10° NW
Cosmos 1814 Rocket 4.2 17:31:42 10° NNW 17:36:52 53° ENE 17:41:57 10° SE
SL-4 R/B 2.3 17:32:52 10° WNW 17:37:15 82° SSW 17:41:54 10° ESE
Cosmos 2084 Rocket 4.2 17:36:34 10° NNW 17:39:58 30° NE 17:43:23 10° E
Cosmos 1805 3.2 17:37:53 10° S 17:41:45 76° E 17:45:39 10° NNE
Cosmos 2227 4.3 17:37:04 10° NNW 17:42:39 58° ENE 17:48:11 10° SE
Cosmos 1242 Rocket 2.7 17:39:29 10° SSW 17:43:02 77° WNW 17:46:35 10° N
Okean-O 4.3 17:42:57 10° E 17:45:42 16° ENE 17:48:29 10° NNE
ISS -2.1 17:44:03 10° W 17:47:05 31° SW 17:50:06 10° SSE
CZ-4 R/B 2.0 17:44:23 10° SE 17:48:12 36° ENE 17:52:03 10° N
Cosmos 1697 Rocket 3.7 17:42:46 10° SW 17:48:13 48° NW 17:53:40 10° NNE
BREEZE M DEB (TANK) 4.1 17:44:29 10° SSW 17:50:30 23° SSE 17:53:02 12° ESE
Cosmos 1908 Rocket 4.0 17:49:29 10° SSE 17:53:28 37° E 17:57:28 10° NNE
SL-14 R/B 3.4 17:49:41 10° NNW 17:53:41 82° W 17:57:40 10° S
IRIDIUM 103 4.4 17:48:52 10° SSE 17:53:55 53° E 17:58:59 10° NNE
Meteor 2-21 4.4 17:48:06 10° S 17:54:01 63° E 18:00:00 10° NNE
OBJECT-B 2.3 17:54:14 13° ENE 17:54:14 13° ENE 17:55:20 10° NE
MOS 1-B 4.3 17:48:27 10° SSE 17:54:15 80° ENE 18:00:06 10° NNW
Cosmos 1733 3.5 17:51:33 10° SSW 17:55:17 68° WNW 17:59:02 10° N
Cosmos 2360 Rocket 3.6 17:52:25 10° SE 17:55:41 16° E 17:58:57 10° ENE
Cosmos 1809 Rocket 4.4 17:52:35 10° S 17:58:39 82° E 18:04:46 10° NNE
Cosmos 1766 3.2 17:57:45 10° S 18:01:36 61° E 18:05:31 10° NNE
Cosmos 1782 Rocket 4.5 17:58:11 10° SE 18:01:46 26° E 18:05:22 10° NNE
Cosmos 1674 Rocket 3.7 17:58:28 10° N 18:02:55 83° W 18:07:21 10° S
Meteor 2-10 4.2 17:57:34 10° S 18:03:12 90° W 18:08:42 10° NNE
NOSS 7 (E) 4.5 18:01:23 10° NW 18:04:35 65° NE 18:07:49 14° SE
Cosmos 1025 Rocket 4.0 18:01:50 10° NNE 18:05:29 26° ENE 18:07:56 16° ESE
YAOGAN 1 2.5 18:02:07 10° SSE 18:06:25 77° ENE 18:10:45 10° N
ATLAS 2AS CENTAUR R/B 4.4 18:01:12 10° WNW 18:07:10 25° N 18:12:53 10° NE
Cosmos 2026 Rocket 4.5 18:02:28 10° SSE 18:07:49 34° E 18:13:12 10° NNE
Cosmos 968 Rocket 3.7 18:03:18 10° S 18:08:18 46° ESE 18:13:17 10° NNE
Okean O Rocket 1.5 18:05:56 10° SSE 18:10:16 70° ENE 18:14:39 10° N
IRIDIUM 106 4.2 18:06:58 10° S 18:12:10 75° E 18:17:24 10° N
Lacrosse 4 Rocket 2.5 18:09:54 10° SSE 18:13:05 22° ESE 18:13:56 21° E
Meteor 2-5 Rocket 3.7 18:09:48 10° N 18:15:16 56° ENE 18:20:42 10° SSE
Nadezhda 4 Rocket 4.0 18:09:15 10° S 18:15:33 76° E 18:21:52 10° NNE
Meteor 1-15 Rocket 4.2 18:11:50 10° S 18:17:17 61° E 18:22:47 10° NNE
CSL-04 Rocket 4.2 18:13:27 14° SE 18:17:36 38° ENE 18:22:35 10° N
Cosmos 2285 Rocket 4.1 18:15:25 10° NNW 18:21:49 85° WSW 18:28:12 10° SSE
USA 186 2.6 18:22:41 30° E 18:23:22 33° ENE 18:26:25 10° N
Cosmos 1726 2.9 18:20:14 10° SSW 18:23:49 54° WNW 18:27:25 10° N
Cosmos 2322 Rocket 2.6 18:18:56 10° S 18:24:09 39° ESE 18:29:25 10° NE
Cosmos 1470 2.8 18:24:43 10° S 18:28:26 50° E 18:32:09 10° NNE
CZ-4B R/B 3.6 18:23:29 10° S 18:28:49 64° WSW 18:34:19 10° NNW
Cosmos 1980 Rocket 3.3 18:24:56 10° SW 18:30:19 45° NW 18:35:43 10° NNE
Cosmos 1975 Rocket 3.3 18:26:23 10° N 18:30:41 47° ENE 18:33:08 23° SE
ARGOS Delta rocket 4.4 18:25:43 10° N 18:30:58 69° WNW 18:35:55 10° SSW
CRYOSAT 2 4.5 18:34:19 14° SSE 18:38:21 51° E 18:43:06 10° N
Cosmos 2292 Rocket 3.5 18:33:32 10° S 18:38:38 83° E 18:42:31 10° N
USA 215 3.6 18:36:56 10° NE 18:43:23 63° NNW 18:49:48 10° WSW
IRS-1C Rocket 4.2 18:43:42 26° SE 18:46:27 55° ENE 18:51:35 10° N
Cosmos 1844 Rocket 2.6 18:44:28 10° NNW 18:50:10 70° ENE 18:52:59 31° SE
SL-16 R/B 2.1 18:48:39 10° SSW 18:54:19 86° ESE 19:00:02 10° NNE
Landsat 5 3.5 18:51:02 10° NNE 18:55:32 64° ESE 18:59:55 10° S
Cosmos 1092 Rocket 3.9 18:50:45 10° S 18:57:03 87° E 19:03:21 10° N
Resurs 01 Rocket 2.7 19:01:19 29° NE 19:01:19 29° NE 19:04:28 10° N
Cosmos 836 Rocket 4.4 18:56:13 10° NNW 19:01:33 76° ENE 19:03:34 39° SE
SJ-6B 2.6 19:02:07 57° S 19:02:50 88° WSW 19:06:40 10° NNW
Cosmos 2278 Rocket 3.7 19:00:59 10° N 19:05:05 20° NE 19:05:41 19° NE
H-2A R/B 3.5 19:07:12 30° NNE 19:07:12 30° NNE 19:09:35 10° N
Cosmos 1437 Rocket 3.9 19:02:41 10° SW 19:06:15 41° WNW 19:09:49 10° N
Meteor 1-24 Rocket 4.0 19:05:19 10° NNW 19:10:33 61° W 19:15:51 10° S
Resurs 1-3 3.4 19:11:26 66° SE 19:11:57 78° ENE 19:16:21 10° N
MetOp-A 4.3 19:17:19 37° NNE 19:17:19 37° NNE 19:20:01 10° N
SL-4 R/B 4.0 19:12:41 10° W 19:16:24 25° SW 19:17:51 21° SSW
Cosmos 921 Rocket 4.4 19:12:44 10° N 19:15:35 27° NNE 19:15:35 27° NNE
Cosmos 2084 Rocket 4.1 19:15:47 10° NW 19:19:26 42° SW 19:19:51 41° SW
Okean-O 2.8 19:20:29 46° S 19:21:40 70° WSW 19:26:06 10° NNW
CZ-4 R/B 3.7 19:19:47 10° SSW 19:23:13 24° W 19:26:41 10° NW
Cosmos 1486 Rocket 3.9 19:18:23 10° SSW 19:23:41 79° ESE 19:29:03 10° NNE
OBJECT-B 3.3 19:24:55 17° WNW 19:24:55 17° WNW 19:25:54 10° NW
Cosmos 1844 3.7 19:19:06 10° NNW 19:24:41 79° WSW 19:26:12 49° SSE
IGS 5A 4.0 19:24:38 43° SSW 19:25:36 55° W 19:29:42 10° NNW
DNEPR-1 R/B 3.8 19:23:14 10° SW 19:27:59 89° SE 19:30:36 33° NE
S3M 3.9 19:23:35 10° N 19:29:46 59° ENE 19:30:10 58° E
Cosmos 1300 Rocket 3.7 19:30:15 57° SW 19:30:57 70° W 19:35:19 10° N
Cosmos 773 Rocket 4.0 19:25:52 10° NNW 19:31:00 64° NE 19:31:00 64° NE
Meteor 1-21 Rocket 4.3 19:26:25 10° N 19:31:34 57° ENE 19:31:34 57° ENE
Cosmos 2360 Rocket 2.1 19:33:13 10° SSW 19:38:52 89° WNW 19:44:32 10° NNE
Cosmos 1417 Rocket 4.4 19:44:03 10° N 19:50:12 85° W 19:51:03 68° S
Lacrosse 4 Rocket 2.7 19:47:28 10° SW 19:50:17 36° W 19:50:17 36° W
ATLAS 2AS CENTAUR R/B 3.8 19:53:57 10° NW 20:00:24 32° NNE 20:01:35 30° NE
MOS 1 4.3 20:01:33 78° WNW 20:01:33 78° WNW 20:07:04 10° NNW
SPOT 1/Viking Rocket 4.0 20:07:53 57° NW 20:07:53 57° NW 20:12:10 10° NNW
Cosmos 2322 Rocket 3.4 20:02:48 10° WSW 20:08:11 41° NW 20:13:36 10° NNE
NOSS 3-4 (A) 3.7 20:05:08 10° NW 20:11:59 78° NE 20:12:04 78° NE
NOSS 3-4 (C) 3.7 20:05:14 10° NW 20:12:06 77° NE 20:12:10 77° NE
Ariane Rocket 4.0 20:16:25 41° NNW 20:16:25 41° NNW 20:19:41 10° NNW
USA 215 4.1 20:24:15 37° NNE 20:25:50 43° N 20:31:56 10° WNW
Aureole 1 Rocket 4.4 20:18:45 10° SW 20:25:58 62° WNW 20:31:39 10° NNE
USA 281 3.8 20:27:40 47° NNE 20:27:40 47° NNE 20:32:50 10° NNW
Resurs 01 Rocket 3.9 20:38:53 23° NW 20:38:53 23° NW 20:41:00 10° NNW
SL-16 R/B 4.4 20:34:49 10° W 20:39:11 22° NW 20:43:35 10° N
Terra 4.2 20:42:43 17° N 20:42:43 17° N 20:43:51 10° N
Cosmos 1943 Rocket 4.1 20:36:33 10° NNW 20:38:59 21° N 20:38:59 21° N
Cosmos 2278 Rocket 3.6 20:44:22 10° NNW 20:47:32 34° NNW 20:47:32 34° NNW
Cosmos 2369 Rocket 4.4 20:56:39 10° N 20:58:48 17° NNE 20:58:48 17° NNE
Cosmos 2333 Rocket 4.4 21:18:31 19° N 21:18:31 19° N 21:20:21 10° NNE
Cosmos 2360 Rocket 4.4 21:19:25 10° W 21:23:40 21° NW 21:27:55 10° N
ATLAS 2AS CENTAUR R/B 4.1 21:45:12 10° NW 21:49:00 34° NW 21:49:00 34° NW
